Location: Cutler
(25.6150°N, 80.3110°W)
Time: 19:36:17
(UTC-04:00)

Vanguard 1 - Pass Details

Date: 31 January 2018
Orbit: 650 x 3833 km, 34.3° (Epoch: 26 May)

Event Time Altitude Azimuth Distance (km) Brightness Sun altitude
Rises 23:28:35 0° 292° (WNW) 3,154 - -72.4°
Reaches altitude 10° 23:30:43 10° 300° (WNW) 2,386 - -72.9°
Maximum altitude 23:35:56 43° 13° (NNE) 1,465 - -73.9°
Drops below altitude 10° 23:44:32 10° 82° (E) 3,907 - -75.6°
Sets 23:49:04 0° 88° (E) 5,444 - -76.4°
